Location: Unspecified
(0.0000°N, 0.0000°E)
Time: 17:49:10
(UTC+00:00)

Vanguard 1 - Pass Details

Date: 14 December 2025
Orbit: 651 x 3820 km, 34.2° (Epoch: 14 January)

Event Time Altitude Azimuth Distance (km) Brightness Sun altitude
Rises 02:51:32 0° 216° (SW) 5,527 13.9 -41.2°
Reaches altitude 10° 02:57:29 10° 198° (SSW) 3,823 13.2 -39.9°
Maximum altitude 03:02:51 17° 162° (SSE) 2,709 12.7 -38.8°
Drops below altitude 10° 03:06:54 10° 123° (ESE) 2,730 13.1 -37.9°
Sets 03:10:04 0° 101° (E) 3,362 13.7 -37.2°
